Regional Weather Roundup
Issued by NWS

Home | Current Version | Previous Version | Text Only | Print | Product List | Glossary Off
Versions: 1 2 3 4 5 6 7 8 9 10 11 12 13 14 15 16 17 18 19 20 21 22 23 24 25 26 27

000
ASUS45 KBOU 252207
RWRCO

WEATHER ROUNDUP FOR COLORADO
NATIONAL WEATHER SERVICE DENVER/BOULDER CO
400 PM MDT SAT OCT 25 2014

NOTE: "FAIR" INDICATES FEW OR NO CLOUDS BELOW 12000 FEET WITH NO
SIGNIFICANT WEATHER AND/OR OBSTRUCTIONS TO VISIBILITY.

COZ001>005-013-030-031-252300-
...NORTHWEST COLORADO...

CITY           SKY/WX    TMP DP  RH WIND       PRES   REMARKS
CRAIG          SUNNY     74  23  15 SW15G23   30.14F
HAYDEN         SUNNY     73  19  13 SW13G20   30.16F
MEEKER         SUNNY     74  26  16 SW15G21   30.16F
MOUNT WERNER   NOT AVBL
STEAMBOAT SPGS SUNNY     71  22  15 SE3       30.18F
WALDEN         SUNNY     66  16  14 SW10G17   30.27S
$$

COZ006>008-011-252300-
...WEST CENTRAL VALLEYS...

CITY           SKY/WX    TMP DP  RH WIND       PRES   REMARKS
GRAND JUNCTION SUNNY     76  30  18 NW10      30.09F
MONTROSE       SUNNY     76  28  17 NW7       30.17F
EAGLE          SUNNY     73  23  15 W10       30.20F
RIFLE          SUNNY     75  28  17 NE6       30.13F
DELTA          SUNNY     82  27  13 SW7       30.13F
NUCLA          SUNNY     77  30  18 SW20G25   30.23S
$$

COZ017>023-064>068-252300-
...SOUTHWEST COLORADO...

CITY           SKY/WX    TMP DP  RH WIND       PRES   REMARKS
DURANGO        SUNNY     71  30  21 W7        30.28F
CORTEZ         SUNNY     75  33  21 SW13      30.23F
PAGOSA SPRINGS SUNNY     70  18  14 SW12      30.34S
TELLURIDE      MOSUNNY   66  20  17 CALM      30.40S
WOLF CREEK PAS SUNNY     48  21  34 SW13G35     N/A
$$

COZ009-010-012-014-032>034-037-058>063-252300-
...CENTRAL COLORADO...

CITY           SKY/WX    TMP DP  RH WIND       PRES   REMARKS
ASPEN          SUNNY     69  14  12 SW10G18   30.26F
BUENA VISTA    SUNNY     72  15  11 S12G20    30.26S
COPPER MTN     SUNNY     55   0  10 SW5G23    30.54F
BERTHOUD PASS  FAIR      43  39  87 N7G16     30.57F
COTTONWOOD PAS SUNNY     66 -13   4 W7G22     30.40F
GUNNISON       SUNNY     66  21  18 CALM      30.30F
KREMMLING      SUNNY     72   5   7 W14G21      N/A
LEADVILLE      SUNNY     61   7  11 W13G18    30.38F
MONARCH PASS   SUNNY     52  18  25 W22       30.65S
SALIDA         SUNNY     74  18  12 S10G18    30.31S
SUNLIGHT       SUNNY     57  25  28 CALM      30.48F
WILKERSON PASS NOT AVBL
$$

COZ069>075-252300-
...SAN LUIS VALLEY/SANGRE DE CRISTO MOUNTAINS...

CITY           SKY/WX    TMP DP  RH WIND       PRES   REMARKS
ALAMOSA        SUNNY     74  19  12 W5        30.27F
LA VETA PASS   SUNNY     63  16  16 S13G23    30.44F
SAGUACHE       SUNNY     70  23  17 S10       30.29F
$$

COZ035-036-038>040-252300-
...NORTHERN COLORADO FRONT RANGE...

CITY           SKY/WX    TMP DP  RH WIND       PRES   REMARKS
DENVER INTL AP SUNNY     79  18  10 SE13      30.09F
DMNS CITY PARK   N/A     80  23  12 E3G10     30.07F
AURORA         SUNNY     78  20  11 SE12      30.11F
FRONT RANGE AP MOSUNNY   81  25  12 E15       30.12F
ERIE MUNI ARPT SUNNY     81  17   9 SE10      30.08F
BOULDER MUN AP SUNNY     79  25  13 E3        30.08F
CENTENNIAL     MOSUNNY   76  19  11 SE14      30.11F
BROOMFIELD     SUNNY     79  21  11 E8        30.11F
FORT COLLINS   SUNNY     81  25  12 S13       30.07F
LONGMONT       SUNNY     83  20  10 S6        30.08F
$$

COZ041-046-047-076>085-087-088-252300-
...PIKES PEAK/PALMER DIVIDE AND SOUTHERN FOOTHILLS...

CITY           SKY/WX    TMP DP  RH WIND       PRES   REMARKS
COLO. SPRINGS  MOSUNNY   77  19  11 S13       30.17F
A. F. ACADEMY  SUNNY     75  14  10 SE10G18   30.17F
ELLICOTT       NOT AVBL
FALCON         SUNNY     75  18  11 S9        30.22S
FORT CARSON    SUNNY     78  20  11 SE9       30.14F
LIMON          SUNNY     79  19  10 S8        30.11F
MONUMENT HILL  SUNNY     72  19  14 S17       30.20F
TRINIDAD       SUNNY     80  25  13 E10       30.12F
$$

COZ042>045-048>051-090-091-252300-
...NORTHEAST COLORADO...

CITY           SKY/WX    TMP DP  RH WIND       PRES   REMARKS
GREELEY ARPT   SUNNY     81  25  12 SE13      30.07F
AKRON          SUNNY     79  26  14 E7        30.07F
BURLINGTON     SUNNY     83  33  16 S9        30.04F
WRAY           SUNNY     82  31  15 E13       30.02F
STERLING       SUNNY     86  32  14 CALM      30.02S
HOLYOKE        SUNNY     81  32  17 SE7       30.04S
FORT MORGAN    SUNNY     81  24  12 E6        30.07S
$$

COZ086-089-092>099-252300-
...SOUTHEAST COLORADO...

CITY           SKY/WX    TMP DP  RH WIND       PRES   REMARKS
PUEBLO         SUNNY     83  22  10 SE6       30.06F
LA JUNTA       SUNNY     85  31  14 SE7       30.04F
LAMAR          SUNNY     87  33  14 VRB6      30.00F
SPRINGFIELD      N/A     85  33  15 S14       30.05F
$$



USA.gov is the U.S. government's official web portal to all federal, state and local government web resources and services.